QPF
0.00 0.00 0.00 0.00 0.00 0.00 0.00 0.00 0.00 0.00 0.00 0.00 0.00 0.00 0.00 0.00 0.00 0.00 0.00 0.00 0.00 0.00 0.00 0.00 0.00 0.00 0.00 0.00 0.00 0.00 0.00 0.00 0.00 0.00 0.01 0.00 0.00 0.00 0.00 0.00 0.00 0.00 0.01 0.01 0.01 0.00 0.00 0.00 0.00
0.00 0.00 0.00 0.00 0.00 0.00 0.00 0.00 0.00 0.00 0.00 0.00 0.00 0.00 0.00 0.00 0.00 0.00 0.00 0.00 0.00 0.00 0.00 0.00 0.00 0.00 0.00 0.00 0.00 0.00 0.00 0.00 0.00 0.01 0.01 0.00 0.00 0.00 0.00 0.00 0.00 0.00 0.00 0.01 0.00 0.00 0.00 0.00 0.00
0.00 0.00 0.00 0.00 0.00 0.00 0.00 0.00 0.00 0.00 0.00 0.00 0.00 0.00 0.00 0.00 0.00 0.00 0.00 0.00 0.00 0.00 0.00 0.00 0.00 0.00 0.00 0.00 0.00 0.00 0.00 0.00 0.00 0.01 0.01 0.00 0.00 0.00 0.00 0.00 0.00 0.00 0.00 0.00 0.00 0.01 0.00 0.00 0.00
0.00 0.00 0.00 0.00 0.00 0.00 0.00 0.00 0.00 0.00 0.00 0.00 0.00 0.00 0.00 0.00 0.00 0.00 0.00 0.00 0.00 0.00 0.00 0.00 0.00 0.00 0.00 0.00 0.00 0.00 0.00 0.00 0.00 0.00 0.00 0.00 0.00 0.00 0.00 0.00 0.00 0.00 0.01 0.01 0.01 0.01 0.00 0.01 0.01
0.00 0.00 0.00 0.00 0.00 0.00 0.00 0.00 0.00 0.00 0.00 0.00 0.00 0.00 0.00 0.00 0.00 0.00 0.00 0.00 0.00 0.00 0.00 0.00 0.00 0.00 0.00 0.00 0.00 0.00 0.00 0.00 0.00 0.00 0.00 0.00 0.00 0.00 0.00 0.00 0.00 0.00 0.00 0.01 0.01 0.00 0.01 0.00 0.00
0.00 0.00 0.00 0.00 0.00 0.00 0.00 0.00 0.00 0.00 0.00 0.00 0.00 0.00 0.00 0.00 0.00 0.00 0.00 0.00 0.00 0.00 0.00 0.00 0.00 0.00 0.00 0.00 0.00 0.00 0.00 0.00 0.00 0.00 0.00 0.00 0.00 0.00 0.00 0.00 0.00 0.00 0.00 0.00 0.00 0.00 0.00 0.00 0.00
0.00 0.00 0.00 0.00 0.00 0.00 0.00 0.00 0.00 0.00 0.00 0.00 0.00 0.00 0.00 0.00 0.00 0.00 0.00 0.00 0.00 0.00 0.00 0.00 0.00 0.00 0.00 0.00 0.00 0.00 0.00 0.00 0.00 0.00 0.00 0.00 0.00 0.00 0.00 0.00 0.00 0.00 0.00 0.00 0.00 0.00 0.00 0.00 0.00
0.00 0.00 0.00 0.00 0.00 0.00 0.00 0.00 0.00 0.00 0.00 0.00 0.00 0.00 0.00 0.00 0.00 0.00 0.00 0.00 0.00 0.00 0.00 0.00 0.00 0.00 0.00 0.00 0.00 0.00 0.00 0.00 0.00 0.00 0.00 0.00 0.00 0.00 0.00 0.00 0.00 0.00 0.00 0.00 0.00 0.00 0.00 0.00 0.00
0.00 0.00 0.00 0.00 0.00 0.00 0.00 0.00 0.00 0.00 0.00 0.00 0.00 0.00 0.00 0.00 0.00 0.00 0.00 0.00 0.01 0.01 0.00 0.00 0.00 0.00 0.00 0.00 0.00 0.00 0.00 0.00 0.00 0.00 0.00 0.00 0.00 0.00 0.00 0.00 0.00 0.00 0.00 0.00 0.00 0.00 0.00 0.00 0.00
0.00 0.00 0.00 0.00 0.00 0.00 0.00 0.00 0.00 0.00 0.00 0.00 0.00 0.00 0.00 0.00 0.00 0.00 0.00 0.00 0.00 0.00 0.00 0.00 0.00 0.00 0.00 0.00 0.00 0.00 0.00 0.00 0.00 0.00 0.00 0.00 0.00 0.00 0.00 0.00 0.00 0.00 0.00 0.00 0.00 0.00 0.00 0.00 0.00
0.00 0.00 0.00 0.00 0.00 0.00 0.00 0.00 0.00 0.00 0.00 0.00 0.00 0.00 0.00 0.00 0.00 0.00 0.00 0.00 0.00 0.00 0.00 0.00 0.00 0.00 0.00 0.00 0.00 0.00 0.00 0.00 0.00 0.00 0.00 0.00 0.00 0.00 0.00 0.00 0.00 0.00 0.00 0.00 0.00 0.00 0.00 0.00 0.00
0.00 0.00 0.00 0.00 0.00 0.00 0.00 0.00 0.00 0.00 0.00 0.00 0.00 0.00 0.00 0.00 0.00 0.00 0.00 0.00 0.00 0.00 0.00 0.00 0.00 0.00 0.00 0.00 0.00 0.00 0.00 0.00 0.00 0.00 0.00 0.00 0.00 0.00 0.00 0.00 0.00 0.00 0.00 0.00 0.00 0.00 0.00 0.00 0.00
0.00 0.00 0.00 0.00 0.00 0.00 0.00 0.00 0.00 0.00 0.00 0.00 0.00 0.00 0.00 0.00 0.00 0.00 0.00 0.00 0.00 0.00 0.00 0.00 0.00 0.00 0.00 0.00 0.00 0.00 0.00 0.00 0.00 0.00 0.00 0.00 0.00 0.00 0.00 0.00 0.00 0.00 0.00 0.00 0.00 0.00 0.00 0.00 0.00
0.00 0.00 0.00 0.00 0.00 0.00 0.00 0.00 0.00 0.00 0.00 0.00 0.00 0.00 0.00 0.00 0.00 0.00 0.00 0.00 0.00 0.00 0.00 0.00 0.00 0.00 0.00 0.00 0.00 0.00 0.00 0.00 0.00 0.00 0.00 0.00 0.00 0.00 0.00 0.00 0.00 0.00 0.00 0.00 0.00 0.00 0.00 0.00 0.00
0.00 0.00 0.00 0.00 0.00 0.00 0.00 0.00 0.00 0.00 0.00 0.00 0.00 0.00 0.00 0.00 0.00 0.00 0.00 0.00 0.00 0.00 0.00 0.00 0.00 0.00 0.00 0.00 0.00 0.00 0.00 0.00 0.00 0.00 0.00 0.00 0.00 0.00 0.00 0.00 0.00 0.00 0.00 0.00 0.00 0.00 0.00 0.00 0.00
0.00 0.00 0.00 0.00 0.00 0.00 0.00 0.00 0.00 0.00 0.00 0.00 0.00 0.00 0.00 0.00 0.00 0.00 0.00 0.00 0.00 0.00 0.00 0.00 0.00 0.00 0.00 0.00 0.00 0.00 0.00 0.00 0.00 0.00 0.00 0.00 0.00 0.00 0.00 0.00 0.00 0.00 0.00 0.00 0.00 0.00 0.00 0.00 0.00
0.00 0.00 0.00 0.00 0.00 0.00 0.00 0.00 0.00 0.00 0.00 0.00 0.00 0.00 0.00 0.00 0.00 0.00 0.00 0.00 0.00 0.00 0.00 0.00 0.00 0.00 0.00 0.00 0.00 0.00 0.00 0.00 0.00 0.00 0.00 0.00 0.00 0.00 0.00 0.00 0.00 0.00 0.00 0.00 0.00 0.00 0.00 0.00 0.00
0.00 0.00 0.00 0.00 0.00 0.00 0.00 0.00 0.00 0.00 0.00 0.00 0.00 0.00 0.00 0.00 0.00 0.00 0.00 0.00 0.00 0.00 0.00 0.00 0.00 0.00 0.00 0.00 0.00 0.00 0.00 0.00 0.00 0.00 0.00 0.00 0.00 0.00 0.00 0.00 0.00 0.00 0.00 0.00 0.00 0.00 0.00 0.00 0.00
0.00 0.00 0.00 0.00 0.00 0.00 0.00 0.00 0.00 0.00 0.00 0.00 0.00 0.00 0.00 0.00 0.00 0.00 0.00 0.00 0.00 0.00 0.00 0.00 0.00 0.00 0.00 0.00 0.00 0.00 0.00 0.00 0.00 0.00 0.00 0.00 0.00 0.00 0.00 0.00 0.00 0.00 0.00 0.00 0.00 0.00 0.00 0.00 0.00
0.00 0.00 0.00 0.00 0.00 0.00 0.00 0.00 0.00 0.00 0.00 0.00 0.00 0.00 0.00 0.00 0.00 0.00 0.00 0.00 0.00 0.00 0.00 0.00 0.00 0.00 0.00 0.00 0.00 0.00 0.00 0.00 0.00 0.00 0.00 0.00 0.00 0.02 0.01 0.00 0.00 0.00 0.00 0.00 0.00 0.00 0.00 0.00 0.00
0.00 0.00 0.00 0.00 0.00 0.00 0.00 0.00 0.00 0.00 0.00 0.00 0.00 0.00 0.00 0.00 0.00 0.00 0.00 0.00 0.00 0.00 0.00 0.00 0.00 0.00 0.00 0.00 0.00 0.00 0.00 0.00 0.00 0.00 0.01 0.01 0.01 0.03 0.02 0.01 0.01 0.01 0.00 0.00 0.00 0.00 0.00 0.00 0.00
0.00 0.00 0.00 0.00 0.00 0.00 0.00 0.00 0.00 0.00 0.00 0.00 0.00 0.00 0.00 0.00 0.00 0.00 0.00 0.00 0.00 0.00 0.00 0.00 0.00 0.00 0.00 0.00 0.00 0.00 0.00 0.00 0.00 0.01 0.01 0.02 0.01 0.02 0.03 0.02 0.02 0.03 0.01 0.00 0.00 0.00 0.00 0.00 0.00
0.00 0.00 0.00 0.00 0.00 0.00 0.00 0.00 0.00 0.00 0.00 0.00 0.00 0.00 0.00 0.00 0.00 0.00 0.00 0.00 0.00 0.00 0.00 0.00 0.00 0.00 0.00 0.00 0.00 0.00 0.00 0.00 0.00 0.00 0.00 0.01 0.03 0.02 0.02 0.04 0.05 0.03 0.03 0.01 0.00 0.00 0.00 0.00 0.00
0.00 0.00 0.00 0.00 0.00 0.00 0.00 0.00 0.00 0.00 0.00 0.00 0.00 0.00 0.00 0.00 0.00 0.00 0.00 0.00 0.00 0.00 0.00 0.00 0.00 0.00 0.00 0.00 0.00 0.00 0.00 0.00 0.00 0.00 0.01 0.02 0.05 0.04 0.03 0.04 0.04 0.04 0.03 0.02 0.01 0.01 0.00 0.00 0.00
0.00 0.00 0.00 0.00 0.00 0.00 0.00 0.00 0.00 0.00 0.00 0.00 0.00 0.00 0.00 0.00 0.00 0.00 0.00 0.00 0.00 0.00 0.00 0.00 0.00 0.00 0.00 0.00 0.00 0.00 0.00 0.00 0.00 0.00 0.01 0.02 0.03 0.02 0.01 0.01 0.01 0.01 0.00 0.00 0.00 0.00 0.00 0.00 0.00
0.00 0.00 0.00 0.00 0.00 0.00 0.00 0.00 0.00 0.00 0.00 0.00 0.00 0.00 0.00 0.00 0.00 0.00 0.00 0.00 0.00 0.00 0.00 0.00 0.00 0.00 0.00 0.00 0.00 0.00 0.00 0.00 0.00 0.00 0.00 0.00 0.00 0.00 0.00 0.00 0.00 0.00 0.00 0.00 0.00 0.00 0.00 0.00 0.00
0.00 0.00 0.00 0.00 0.00 0.00 0.00 0.00 0.00 0.00 0.00 0.00 0.00 0.00 0.00 0.00 0.00 0.00 0.00 0.00 0.00 0.00 0.00 0.00 0.00 0.00 0.00 0.00 0.00 0.00 0.00 0.00 0.00 0.00 0.00 0.00 0.00 0.00 0.00 0.00 0.00 0.00 0.00 0.00 0.00 0.00 0.00 0.00 0.00
0.00 0.00 0.00 0.00 0.00 0.00 0.00 0.00 0.00 0.00 0.00 0.00 0.00 0.00 0.00 0.00 0.00 0.00 0.00 0.00 0.00 0.00 0.00 0.00 0.00 0.00 0.00 0.00 0.00 0.00 0.00 0.00 0.00 0.00 0.00 0.00 0.00 0.00 0.00 0.00 0.00 0.00 0.00 0.00 0.00 0.00 0.00 0.00 0.00
0.00 0.00 0.00 0.00 0.00 0.00 0.00 0.00 0.00 0.00 0.00 0.00 0.00 0.00 0.00 0.00 0.00 0.00 0.00 0.00 0.00 0.00 0.00 0.00 0.00 0.00 0.00 0.00 0.00 0.00 0.00 0.00 0.00 0.00 0.00 0.00 0.00 0.00 0.00 0.00 0.00 0.00 0.00 0.00 0.00 0.00 0.00 0.00 0.00
0.00 0.00 0.00 0.00 0.00 0.00 0.00 0.00 0.00 0.00 0.00 0.00 0.00 0.00 0.00 0.00 0.00 0.00 0.00 0.00 0.00 0.00 0.00 0.00 0.00 0.00 0.00 0.00 0.00 0.00 0.00 0.00 0.00 0.00 0.00 0.00 0.00 0.00 0.00 0.00 0.00 0.00 0.00 0.00 0.00 0.00 0.00 0.00 0.00
MSLP
1012.83 1012.84 1013.01 1013.71 1015.46 1016.66 1016.94 1016.82 1016.58 1016.71 1016.85 1016.68 1016.99 1017.52 1017.75 1017.85 1018.18 1018.88 1018.03 1018.09 1017.91 1018.40 1018.83 1019.14 1019.41 1019.75 1020.04 1020.27 1020.37 1020.45 1020.50 1020.52 1020.63 1020.66 1020.85 1021.06 1021.24 1021.26 1021.32 1021.36 1021.22 1021.22 1021.13 1021.20 1021.38 1021.44 1021.67 1021.85 1021.89
1012.92 1012.97 1013.71 1015.01 1016.36 1017.32 1017.37 1016.78 1016.56 1016.38 1016.52 1016.66 1016.92 1017.41 1017.56 1017.83 1017.73 1018.05 1018.11 1018.17 1018.11 1018.52 1018.97 1019.28 1019.60 1019.89 1020.17 1020.41 1020.59 1020.71 1020.77 1020.81 1020.88 1020.88 1021.12 1021.29 1021.51 1021.63 1021.73 1021.74 1021.65 1021.61 1021.59 1021.65 1021.77 1021.92 1022.14 1022.21 1022.37
1012.93 1013.45 1014.73 1015.91 1017.25 1017.28 1016.99 1016.54 1016.33 1016.38 1016.56 1016.59 1017.05 1017.24 1017.45 1017.71 1017.74 1017.80 1017.59 1017.89 1018.36 1018.81 1019.16 1019.51 1019.78 1020.05 1020.35 1020.61 1020.78 1020.89 1020.96 1021.04 1021.15 1021.22 1021.42 1021.66 1021.88 1022.02 1022.11 1022.13 1022.07 1022.00 1021.97 1022.15 1022.29 1022.52 1022.58 1022.62 1022.81
1013.45 1014.33 1015.89 1016.15 1016.75 1016.42 1016.32 1016.16 1016.24 1016.46 1016.47 1016.65 1016.82 1017.37 1017.51 1017.53 1017.62 1017.55 1017.71 1017.82 1018.47 1019.03 1019.37 1019.73 1019.97 1020.23 1020.57 1020.82 1021.00 1021.15 1021.25 1021.33 1021.46 1021.58 1021.80 1022.03 1022.27 1022.43 1022.52 1022.52 1022.50 1022.49 1022.48 1022.53 1022.78 1022.95 1023.05 1023.29 1023.33
1014.14 1015.18 1016.21 1016.60 1016.38 1016.17 1016.02 1016.15 1016.33 1016.52 1016.59 1016.76 1016.81 1017.40 1017.62 1017.52 1017.57 1017.76 1017.85 1018.05 1018.56 1019.08 1019.49 1019.89 1020.13 1020.42 1020.71 1021.00 1021.23 1021.39 1021.49 1021.61 1021.81 1022.02 1022.25 1022.46 1022.66 1022.76 1022.83 1022.90 1023.00 1023.06 1023.09 1023.13 1023.41 1023.49 1023.73 1023.85 1023.91
1014.92 1015.80 1016.61 1016.70 1016.26 1015.91 1015.88 1016.21 1016.39 1016.51 1016.58 1016.87 1017.19 1017.63 1017.69 1017.59 1017.85 1018.20 1018.20 1018.44 1018.69 1019.10 1019.62 1019.95 1020.25 1020.53 1020.84 1021.16 1021.43 1021.63 1021.75 1021.89 1022.08 1022.30 1022.54 1022.84 1023.03 1023.14 1023.21 1023.27 1023.37 1023.60 1023.64 1023.70 1023.98 1024.16 1024.29 1024.41 1024.55
1015.10 1016.24 1016.65 1016.43 1016.12 1015.74 1015.77 1015.99 1016.33 1016.50 1016.60 1016.58 1016.98 1017.99 1017.83 1017.92 1017.80 1018.21 1018.45 1018.63 1019.06 1019.55 1019.80 1020.14 1020.41 1020.71 1021.00 1021.31 1021.60 1021.81 1022.01 1022.22 1022.43 1022.62 1022.85 1023.16 1023.37 1023.49 1023.59 1023.65 1023.79 1024.03 1024.06 1024.23 1024.48 1024.61 1024.76 1024.97 1025.18
1015.25 1016.17 1016.80 1016.45 1016.17 1015.67 1015.54 1015.79 1015.88 1016.30 1016.45 1016.47 1016.68 1017.28 1017.55 1017.38 1017.72 1018.25 1018.70 1018.98 1019.30 1019.60 1019.97 1020.30 1020.73 1020.94 1021.20 1021.51 1021.79 1022.08 1022.31 1022.48 1022.70 1022.95 1023.21 1023.51 1023.74 1023.91 1024.03 1024.09 1024.22 1024.42 1024.54 1024.73 1024.95 1025.19 1025.41 1025.57 1025.70
1015.13 1016.12 1016.69 1016.23 1016.02 1015.45 1015.62 1015.69 1015.85 1016.04 1016.24 1016.36 1016.40 1016.74 1016.86 1017.01 1017.88 1018.54 1018.97 1019.31 1019.43 1019.70 1019.83 1020.28 1020.81 1021.19 1021.41 1021.69 1021.99 1022.24 1022.49 1022.74 1023.03 1023.33 1023.63 1023.91 1024.20 1024.39 1024.51 1024.55 1024.67 1024.88 1025.07 1025.27 1025.54 1025.81 1026.07 1026.17 1026.31
1015.31 1016.30 1015.96 1015.31 1015.17 1015.02 1015.21 1015.43 1015.71 1016.17 1016.41 1016.53 1016.56 1016.90 1017.17 1017.44 1017.90 1018.46 1018.87 1019.06 1019.23 1019.37 1019.75 1020.03 1020.63 1021.17 1021.56 1021.83 1022.16 1022.47 1022.74 1023.00 1023.29 1023.64 1023.96 1024.29 1024.51 1024.67 1024.84 1024.97 1025.12 1025.32 1025.56 1025.80 1026.12 1026.44 1026.67 1026.81 1027.04
1015.22 1015.69 1015.33 1014.99 1014.74 1014.77 1015.05 1015.52 1015.54 1016.00 1016.74 1016.26 1016.35 1016.74 1017.51 1017.71 1018.14 1018.37 1018.66 1018.75 1018.74 1019.09 1019.55 1019.90 1020.32 1020.89 1021.52 1021.90 1022.27 1022.62 1022.97 1023.30 1023.59 1023.91 1024.23 1024.55 1024.85 1025.02 1025.23 1025.52 1025.79 1026.04 1026.28 1026.64 1026.88 1027.10 1027.28 1027.52 1027.68
1015.21 1015.07 1014.89 1014.93 1014.76 1014.76 1015.14 1015.45 1015.92 1015.98 1015.66 1015.88 1016.02 1016.54 1017.29 1017.64 1017.89 1017.98 1018.31 1018.47 1018.72 1018.94 1019.26 1019.67 1019.97 1020.62 1021.18 1021.73 1022.15 1022.57 1023.00 1023.43 1023.80 1024.03 1024.32 1024.68 1025.07 1025.32 1025.56 1025.92 1026.26 1026.56 1026.89 1027.20 1027.42 1027.69 1027.99 1028.18 1028.37
1015.13 1015.06 1014.89 1015.01 1015.03 1014.97 1015.09 1015.44 1015.80 1015.78 1015.62 1015.89 1016.11 1016.69 1017.16 1017.35 1017.47 1017.80 1018.05 1018.54 1018.75 1018.90 1019.01 1019.32 1019.61 1020.11 1020.72 1021.26 1021.73 1022.37 1022.85 1023.26 1023.66 1024.09 1024.41 1024.73 1025.13 1025.49 1025.72 1026.09 1026.46 1026.91 1027.22 1027.56 1028.01 1028.29 1028.61 1028.84 1028.99
1014.95 1015.28 1015.21 1015.32 1015.44 1015.44 1015.50 1015.77 1015.80 1015.49 1015.60 1015.83 1016.55 1016.90 1017.18 1017.40 1017.32 1017.81 1018.13 1018.29 1018.38 1018.55 1018.70 1019.00 1019.36 1019.71 1020.26 1020.80 1021.19 1021.67 1022.39 1022.97 1023.53 1023.97 1024.37 1024.75 1025.15 1025.41 1025.84 1026.35 1026.77 1027.17 1027.48 1027.97 1028.36 1028.82 1029.24 1029.54 1029.63
1015.58 1015.51 1015.67 1015.79 1015.76 1016.04 1015.99 1016.21 1015.67 1015.48 1015.77 1016.15 1016.73 1017.03 1017.36 1017.52 1017.84 1017.45 1017.07 1017.62 1017.80 1017.97 1018.48 1018.73 1019.03 1019.34 1019.81 1020.25 1020.84 1021.36 1021.69 1022.31 1023.12 1023.63 1024.09 1024.57 1024.91 1025.27 1025.81 1026.47 1026.94 1027.27 1027.60 1028.03 1028.54 1029.13 1029.51 1029.98 1030.26
1016.18 1016.32 1016.61 1016.41 1016.36 1016.40 1016.39 1016.32 1015.57 1015.67 1015.89 1016.35 1016.77 1017.13 1017.19 1017.20 1017.27 1017.40 1017.13 1017.22 1017.57 1017.87 1018.00 1018.32 1018.72 1019.12 1019.39 1019.82 1020.33 1020.91 1021.45 1021.90 1022.35 1022.99 1023.57 1024.11 1024.65 1025.06 1025.62 1026.22 1026.78 1027.35 1027.81 1028.24 1028.71 1029.30 1029.94 1030.49 1030.98
1017.27 1017.19 1017.21 1016.97 1016.89 1016.79 1016.79 1016.71 1015.85 1015.99 1016.05 1016.51 1016.77 1017.18 1017.15 1016.95 1016.87 1016.82 1016.60 1016.62 1016.89 1017.07 1017.43 1017.83 1018.13 1018.42 1018.86 1019.33 1019.85 1020.37 1020.94 1021.51 1022.06 1022.52 1022.89 1023.44 1024.06 1024.64 1025.18 1025.86 1026.53 1027.20 1027.79 1028.41 1028.68 1029.43 1029.79 1030.67 1031.19
1017.28 1017.44 1017.43 1017.33 1017.28 1017.24 1017.27 1016.88 1016.34 1016.34 1016.24 1016.47 1016.69 1016.79 1016.90 1016.63 1016.02 1015.44 1015.64 1015.87 1016.13 1016.42 1016.70 1017.04 1017.45 1017.87 1018.45 1018.87 1019.49 1019.85 1020.41 1020.99 1021.52 1022.05 1022.41 1022.90 1023.53 1024.17 1024.76 1025.40 1026.29 1027.00 1027.74 1028.29 1028.72 1029.28 1029.96 1030.54 1031.12
1016.92 1017.41 1017.39 1017.29 1017.51 1017.58 1017.43 1017.48 1016.29 1016.20 1016.41 1016.17 1016.30 1016.26 1016.04 1015.88 1014.52 1015.01 1015.11 1015.26 1015.74 1016.13 1016.28 1016.34 1016.81 1017.15 1017.86 1018.50 1019.07 1019.58 1019.87 1020.45 1020.91 1021.35 1021.77 1022.23 1022.74 1023.44 1024.04 1024.74 1025.56 1026.38 1026.97 1027.58 1028.37 1029.24 1029.64 1030.79 1031.11
1017.32 1017.76 1017.73 1017.65 1017.73 1017.75 1017.94 1017.67 1016.68 1016.28 1015.83 1015.37 1015.23 1015.37 1015.23 1015.01 1014.52 1014.58 1014.77 1014.81 1015.00 1015.00 1015.15 1015.46 1015.68 1016.27 1016.84 1017.46 1018.04 1018.77 1019.34 1019.84 1020.01 1020.53 1021.14 1021.70 1022.19 1022.51 1023.10 1023.68 1024.43 1024.96 1026.08 1027.12 1027.59 1028.11 1029.35 1030.07 1030.51
1017.71 1018.06 1018.10 1018.33 1018.25 1018.37 1018.69 1017.99 1016.88 1015.66 1015.20 1014.71 1014.48 1014.43 1014.59 1014.56 1014.50 1014.32 1014.28 1014.19 1014.30 1014.53 1014.55 1014.60 1014.72 1015.18 1015.69 1016.49 1017.60 1018.52 1019.48 1020.06 1020.35 1020.27 1020.58 1020.73 1021.17 1021.62 1021.96 1022.61 1023.56 1024.25 1024.94 1025.90 1026.43 1027.09 1027.25 1028.77 1029.66
1018.08 1017.86 1018.16 1018.62 1019.14 1019.61 1019.62 1018.70 1017.18 1015.85 1015.35 1014.81 1014.10 1013.91 1013.97 1014.51 1014.31 1014.02 1014.01 1013.92 1014.09 1013.89 1014.07 1014.12 1014.35 1014.66 1015.14 1015.83 1016.64 1017.45 1018.09 1018.71 1019.04 1019.25 1019.75 1019.99 1020.34 1020.68 1021.26 1021.96 1022.43 1023.37 1024.07 1024.73 1025.02 1025.52 1026.36 1026.98 1028.13
1017.66 1017.85 1018.58 1019.20 1020.07 1020.39 1020.32 1020.25 1016.76 1016.32 1015.65 1014.56 1013.47 1013.88 1013.99 1014.40 1014.46 1014.05 1014.28 1014.11 1013.91 1013.79 1013.74 1014.02 1014.16 1014.28 1014.71 1015.19 1015.73 1016.60 1017.30 1017.66 1018.50 1019.03 1019.49 1019.89 1020.14 1020.21 1020.62 1021.07 1021.63 1022.39 1023.22 1023.44 1024.02 1024.89 1025.31 1025.58 1026.38
1017.75 1018.59 1019.67 1020.58 1021.02 1021.11 1020.12 1019.75 1017.05 1016.17 1014.81 1014.28 1013.82 1013.91 1014.19 1014.64 1014.62 1014.63 1014.48 1014.32 1014.13 1013.86 1013.80 1013.99 1014.04 1014.28 1014.55 1015.01 1015.50 1016.17 1016.84 1017.74 1018.56 1019.12 1019.45 1019.78 1020.17 1020.58 1020.77 1021.08 1021.31 1021.71 1022.31 1022.97 1023.37 1024.02 1024.65 1025.23 1025.37
1017.75 1019.02 1020.82 1021.61 1021.93 1021.15 1020.37 1019.89 1015.83 1014.92 1013.99 1014.24 1014.08 1014.07 1014.33 1014.59 1014.73 1015.00 1015.18 1015.00 1014.77 1014.59 1014.33 1014.28 1014.31 1014.73 1015.05 1015.34 1015.73 1016.23 1016.77 1017.58 1018.25 1018.84 1019.25 1019.65 1020.12 1020.45 1020.65 1021.05 1021.28 1021.25 1021.79 1022.00 1022.81 1023.61 1024.12 1024.31 1024.59
1017.82 1018.17 1019.50 1020.89 1022.14 1021.37 1020.81 1018.79 1015.14 1013.96 1013.92 1014.05 1014.18 1014.53 1014.50 1014.74 1014.99 1015.30 1015.45 1015.34 1015.23 1015.31 1015.26 1015.09 1015.10 1015.20 1015.56 1015.90 1016.22 1016.61 1017.05 1017.58 1018.06 1018.54 1019.01 1019.34 1019.73 1020.00 1020.33 1020.86 1021.17 1021.43 1021.47 1021.84 1022.23 1023.08 1023.59 1024.28 1024.56
1017.53 1017.75 1017.65 1020.03 1022.13 1021.65 1019.65 1017.27 1014.98 1013.41 1013.69 1013.98 1014.32 1014.78 1015.10 1015.20 1015.38 1015.64 1015.67 1015.81 1015.90 1015.76 1015.76 1015.71 1015.67 1015.78 1016.10 1016.44 1016.81 1017.18 1017.52 1017.89 1018.34 1018.79 1019.20 1019.56 1019.95 1020.36 1020.55 1020.73 1021.04 1021.35 1021.61 1021.85 1022.22 1022.65 1023.06 1023.63 1024.05
1015.45 1016.10 1017.87 1019.19 1020.69 1020.88 1018.93 1017.49 1014.90 1013.79 1013.96 1014.09 1014.58 1014.70 1014.84 1014.93 1015.29 1015.54 1015.85 1016.07 1016.17 1016.04 1016.03 1016.19 1015.99 1016.12 1016.27 1016.59 1016.97 1017.35 1017.76 1018.16 1018.53 1018.96 1019.46 1019.77 1020.02 1020.37 1020.65 1020.93 1021.03 1021.32 1021.54 1021.75 1021.85 1022.33 1022.76 1023.19 1023.57
1015.95 1016.04 1016.97 1017.85 1018.68 1018.83 1018.64 1015.99 1013.91 1013.51 1013.90 1014.30 1014.45 1014.53 1014.71 1015.05 1015.59 1015.93 1016.33 1016.60 1016.62 1016.61 1016.56 1016.63 1016.50 1016.53 1016.77 1016.92 1017.26 1017.53 1017.98 1018.41 1018.71 1019.07 1019.56 1019.93 1020.12 1020.32 1020.48 1020.93 1021.11 1021.42 1021.69 1021.84 1021.89 1021.98 1022.25 1022.53 1022.89
1015.00 1014.84 1015.45 1016.91 1017.93 1018.22 1017.65 1014.26 1013.67 1013.73 1014.10 1014.14 1014.39 1014.65 1014.83 1015.21 1015.68 1016.07 1016.45 1016.70 1016.78 1016.81 1016.98 1017.02 1016.96 1016.79 1017.00 1017.29 1017.50 1017.73 1017.92 1018.44 1018.76 1018.66 1019.09 1019.56 1019.83 1020.19 1020.44 1020.66 1020.91 1021.17 1021.39 1021.56 1021.82 1021.97 1022.17 1022.34 1022.51
Thickness
5736 5738 5739 5729 5698 5682 5679 5692 5699 5697 5700 5709 5707 5701 5699 5704 5698 5684 5711 5711 5711 5706 5701 5698 5695 5691 5687 5683 5682 5679 5678 5677 5676 5676 5675 5672 5671 5671 5671 5671 5672 5671 5673 5671 5671 5671 5669 5667 5667
5736 5737 5730 5708 5682 5670 5673 5694 5699 5703 5708 5704 5708 5706 5704 5701 5711 5708 5709 5712 5710 5706 5702 5699 5695 5691 5687 5684 5682 5680 5679 5677 5676 5675 5674 5672 5670 5669 5668 5668 5668 5668 5668 5668 5667 5666 5664 5664 5662
5735 5732 5715 5691 5667 5673 5678 5698 5701 5708 5704 5711 5707 5708 5708 5705 5711 5712 5718 5715 5709 5705 5701 5698 5695 5691 5688 5684 5682 5680 5679 5677 5675 5674 5672 5670 5668 5667 5666 5665 5665 5665 5666 5664 5662 5660 5660 5660 5658
5727 5721 5705 5688 5689 5699 5702 5703 5703 5705 5712 5714 5711 5705 5711 5715 5713 5718 5718 5716 5710 5704 5700 5697 5694 5691 5687 5684 5681 5679 5678 5676 5674 5672 5670 5668 5666 5664 5663 5663 5662 5662 5662 5660 5658 5656 5656 5653 5652
5719 5707 5684 5682 5693 5701 5705 5706 5702 5706 5708 5710 5713 5702 5706 5716 5717 5717 5717 5714 5710 5704 5700 5696 5692 5689 5686 5682 5679 5677 5676 5674 5672 5670 5667 5666 5664 5663 5662 5660 5659 5658 5658 5656 5654 5653 5650 5648 5647
5703 5697 5677 5677 5690 5704 5709 5705 5706 5707 5710 5708 5705 5701 5707 5716 5715 5713 5714 5712 5708 5704 5700 5696 5691 5688 5684 5680 5677 5675 5674 5672 5670 5668 5665 5663 5661 5660 5659 5657 5656 5654 5653 5651 5649 5647 5646 5644 5642
5697 5683 5679 5684 5692 5703 5709 5705 5706 5704 5706 5712 5711 5697 5708 5711 5717 5713 5712 5709 5705 5700 5698 5694 5691 5687 5683 5678 5675 5673 5671 5669 5667 5665 5663 5660 5658 5656 5655 5653 5652 5650 5649 5647 5644 5642 5641 5639 5637
5692 5685 5681 5687 5684 5699 5709 5709 5714 5708 5706 5715 5717 5703 5705 5715 5717 5713 5709 5707 5704 5699 5694 5691 5687 5684 5680 5676 5672 5670 5668 5667 5664 5662 5660 5657 5655 5653 5651 5649 5647 5646 5644 5642 5639 5637 5635 5633 5632
5697 5673 5672 5689 5687 5704 5703 5709 5710 5715 5710 5715 5718 5716 5719 5720 5714 5710 5706 5703 5702 5699 5696 5690 5685 5681 5678 5674 5671 5668 5666 5664 5661 5659 5656 5654 5651 5649 5647 5645 5643 5640 5638 5636 5634 5631 5629 5628 5626
5684 5669 5681 5698 5702 5705 5704 5711 5709 5709 5708 5711 5714 5717 5715 5716 5713 5708 5706 5704 5702 5701 5697 5692 5686 5680 5676 5673 5670 5666 5664 5661 5659 5656 5653 5650 5648 5646 5644 5641 5639 5636 5633 5630 5628 5625 5624 5623 5621
5684 5675 5689 5701 5707 5709 5706 5707 5710 5703 5698 5708 5710 5715 5710 5712 5710 5709 5706 5706 5706 5703 5699 5694 5688 5681 5676 5672 5669 5665 5662 5659 5656 5653 5650 5647 5645 5643 5640 5637 5634 5631 5628 5625 5623 5621 5619 5616 5613
5683 5689 5690 5698 5704 5707 5703 5705 5703 5702 5713 5716 5716 5717 5712 5712 5710 5712 5709 5707 5705 5703 5700 5696 5690 5683 5678 5673 5670 5666 5661 5658 5655 5652 5649 5646 5643 5640 5637 5633 5630 5626 5623 5620 5617 5615 5612 5609 5606
5679 5685 5690 5693 5696 5700 5704 5703 5703 5702 5711 5714 5715 5712 5711 5713 5713 5712 5711 5706 5704 5703 5701 5698 5693 5688 5680 5676 5671 5666 5662 5658 5654 5650 5647 5643 5639 5636 5634 5630 5626 5622 5619 5616 5611 5608 5604 5602 5599
5680 5680 5684 5686 5688 5692 5695 5696 5702 5707 5709 5713 5708 5706 5707 5710 5712 5709 5707 5706 5706 5705 5703 5700 5695 5690 5684 5678 5675 5669 5664 5658 5653 5649 5645 5641 5637 5632 5628 5626 5622 5618 5614 5609 5605 5601 5596 5593 5591
5671 5674 5675 5677 5682 5682 5687 5685 5692 5699 5705 5708 5702 5701 5702 5703 5705 5708 5715 5711 5710 5708 5703 5700 5697 5692 5687 5682 5676 5671 5668 5662 5654 5649 5645 5640 5637 5633 5628 5621 5616 5613 5610 5605 5600 5594 5589 5584 5581
5658 5655 5652 5667 5669 5675 5680 5667 5695 5695 5696 5698 5698 5695 5698 5702 5704 5705 5710 5710 5708 5706 5704 5702 5698 5693 5689 5683 5678 5672 5668 5664 5658 5652 5646 5641 5636 5631 5627 5620 5614 5609 5604 5599 5594 5588 5582 5576 5571
5636 5637 5643 5649 5658 5665 5669 5671 5687 5689 5691 5694 5693 5692 5695 5698 5703 5704 5708 5711 5710 5709 5707 5702 5700 5696 5692 5685 5679 5674 5669 5663 5659 5653 5648 5643 5637 5631 5625 5619 5613 5607 5601 5595 5590 5584 5578 5570 5563
5635 5636 5637 5639 5653 5653 5656 5659 5673 5678 5686 5686 5687 5689 5692 5697 5704 5711 5711 5713 5713 5710 5709 5706 5701 5697 5691 5685 5679 5675 5669 5664 5659 5654 5648 5643 5636 5629 5623 5617 5609 5603 5596 5590 5585 5579 5571 5565 5559
5634 5634 5637 5641 5646 5648 5646 5648 5669 5673 5676 5679 5684 5687 5693 5698 5714 5710 5710 5709 5709 5708 5708 5707 5702 5698 5691 5684 5678 5673 5670 5665 5660 5654 5649 5643 5637 5630 5623 5616 5609 5602 5596 5589 5581 5572 5567 5556 5553
5629 5628 5630 5635 5640 5642 5638 5646 5659 5666 5675 5685 5689 5690 5694 5701 5707 5707 5707 5708 5707 5712 5713 5710 5707 5700 5694 5689 5683 5676 5670 5666 5661 5655 5649 5642 5636 5632 5625 5619 5611 5605 5595 5586 5581 5574 5562 5555 5550
5620 5617 5621 5623 5628 5630 5626 5635 5654 5670 5673 5681 5686 5689 5692 5697 5700 5703 5705 5708 5708 5706 5708 5709 5708 5704 5699 5691 5681 5670 5663 5657 5653 5651 5648 5644 5638 5631 5627 5620 5610 5603 5595 5586 5581 5574 5571 5555 5548
5605 5614 5618 5621 5614 5605 5616 5609 5641 5664 5665 5674 5683 5688 5689 5687 5693 5699 5703 5705 5705 5705 5704 5705 5703 5700 5696 5690 5682 5673 5668 5662 5657 5653 5647 5643 5639 5634 5626 5618 5611 5601 5592 5585 5581 5577 5569 5562 5551
5611 5608 5609 5610 5598 5602 5603 5597 5636 5648 5661 5671 5685 5682 5684 5683 5682 5690 5692 5694 5699 5700 5700 5698 5697 5696 5691 5687 5681 5672 5666 5661 5652 5645 5640 5635 5632 5630 5625 5619 5611 5602 5591 5586 5580 5572 5567 5565 5557
5596 5594 5586 5576 5579 5580 5595 5603 5622 5643 5659 5672 5679 5678 5674 5673 5673 5677 5682 5684 5688 5690 5692 5691 5691 5689 5685 5680 5674 5666 5659 5649 5641 5635 5632 5627 5622 5618 5615 5609 5604 5597 5590 5582 5576 5569 5564 5557 5555
5595 5586 5562 5564 5559 5581 5581 5593 5638 5650 5656 5658 5665 5665 5666 5668 5666 5666 5666 5668 5671 5675 5678 5679 5679 5676 5671 5667 5662 5656 5650 5642 5635 5628 5624 5619 5614 5609 5605 5599 5595 5592 5584 5580 5571 5564 5559 5554 5546
5582 5584 5567 5555 5552 5576 5567 5589 5631 5642 5649 5650 5656 5651 5654 5659 5657 5656 5656 5657 5659 5660 5660 5662 5663 5661 5656 5651 5647 5643 5638 5633 5627 5621 5616 5613 5607 5602 5597 5590 5584 5578 5576 5571 5567 5560 5554 5549 5544
5572 5572 5592 5551 5473 5528 5571 5600 5627 5645 5641 5642 5643 5643 5640 5645 5645 5644 5643 5642 5643 5646 5646 5647 5647 5645 5641 5636 5632 5627 5622 5618 5614 5608 5604 5599 5593 5587 5582 5578 5574 5569 5565 5562 5558 5554 5549 5544 5538
5584 5588 5562 5543 5527 5532 5574 5586 5618 5645 5641 5632 5627 5629 5630 5635 5636 5633 5630 5629 5630 5632 5632 5631 5632 5629 5627 5623 5619 5614 5610 5606 5602 5596 5590 5585 5581 5575 5571 5565 5563 5559 5555 5552 5550 5546 5541 5535 5531
5566 5568 5566 5565 5556 5557 5546 5589 5615 5626 5624 5618 5620 5619 5622 5622 5618 5616 5614 5612 5614 5614 5615 5614 5615 5615 5612 5610 5606 5603 5599 5593 5588 5584 5578 5572 5568 5565 5561 5555 5553 5548 5544 5541 5540 5538 5533 5529 5524
5570 5575 5570 5554 5550 5535 5543 5603 5608 5611 5605 5607 5611 5613 5611 5610 5604 5601 5600 5600 5600 5601 5600 5599 5599 5600 5598 5595 5592 5590 5587 5581 5576 5576 5570 5564 5560 5555 5551 5548 5544 5540 5536 5533 5529 5527 5523 5520 5516